Regional Weather Roundup
Issued by NWS

Home | Current Version | Previous Version | Text Only | Print | Product List | Glossary On
Versions: 1 2 3 4 5 6 7 8 9 10 11 12 13 14 15 16 17 18 19 20 21 22 23 24 25 26 27 28 29 30 31 32 33 34 35 36 37 38 39 40 41 42 43 44 45 46 47 48 49 50
000
ASUS43 KLOT 230210
RWRIL

ILLINOIS REGIONAL WEATHER ROUNDUP
NATIONAL WEATHER SERVICE CHICAGO/ROMEOVILLE IL
900 PM CDT TUE JUL 22 2014

NOTE: "FAIR" INDICATES FEW OR NO CLOUDS BELOW 12,000 FEET WITH NO
SIGNIFICANT WEATHER AND/OR OBSTRUCTIONS TO VISIBILITY.

* THESE STATIONS ARE NOT UNDER NWS QUALITY CONTROL. THEY ALSO MAY NOT
  REPORT WEATHER SUCH AS PRECIPITATION OR FOG.

ILZ001-002-007-009-015-016-024-230300-
NORTHWEST ILLINOIS

CITY           SKY/WX    TMP DP  RH WIND       PRES   REMARKS
MOLINE         FAIR      81  77  88 W6        29.98R HX  88
STERLING*      FAIR      79  73  83 W5        29.98R HX  82
SAVANNA*       FAIR      85  73  65 NW9       29.97R HX  92
$$

ILZ003-004-008-010-011-017-018-230300-
NORTH CENTRAL ILLINOIS

CITY           SKY/WX    TMP DP  RH WIND       PRES   REMARKS
ROCKFORD       FAIR      83  78  85 CALM      29.96S HX  93
FREEPORT*      FAIR      79  76  91 W8        30.00R HX  83
ROCHELLE*      FAIR      80  75  86 SW7       29.98S HX  84
DE KALB*       FAIR      80  75  85 SW9       29.98S HX  84
PERU*          FAIR      81  74  79 SW9       29.99S HX  87
$$

ILZ005-006-012>014-019>023-230300-
NORTHEAST ILLINOIS

CITY           SKY/WX    TMP DP  RH WIND       PRES   REMARKS
CHICAGO-OHARE  MOCLDY    85  73  67 SW8       29.95R HX  91
CHICAGO-MIDWAY CLOUDY    86  75  69 SW13      29.95R HX  95
AURORA         MOCLDY    82  74  76 SW7       29.97R HX  88
LANSING*       MOCLDY    81  72  76 SW7       29.97R HX  85
JOLIET*        FAIR      82  73  72 SW8       29.98S HX  87
WAUKEGAN       FAIR      83  75  77 SW8       29.92F HX  90
DUPAGE AIRPORT MOCLDY    83  75  77 SW9       29.96R HX  90
KANKAKEE*      FAIR      77  74  90 SW5       30.00S
WHEELING       FAIR      87  75  67 SW8       29.96R HX  96
MORRIS*        FAIR      82  75  81 SW6       29.98R HX  88
ROMEOVILLE*    CLOUDY    82  73  73 SW10      29.97S HX  87
NORTHERLY ISL    N/A     85  72  65 S9          N/A  HX  91
$$

LMZ740>746-230300-
SOUTHERN LAKE MICHIGAN

STATION/POSITION SKY/WX   TEMP    WIND        PRES    VSBY  WAVE
                          AIR SEA DIR/SP/G                  HT/PER
                          (F)     (DEG/KT/KT) (MB)    (MI)  (FT/S)
SOUTHERN BUOY              71 66  210/ 10/ 12 1012.5F         1/ 4
WAUKEGAN HARBOR            84     230/  9/ 11 1014.2S
HARRISON CRIB              84     220/ 18/ 22   N/A
BURNHAM HARBOR             85     220/  6/ 13   N/A
CALUMET HARBOR             83     210/  6/ 10 1013.4R
MICHIGAN CITY              81     180/ 11/ 14   N/A
$$

ILZ025>027-034>036-040-047-049-050-058-095>099-230300-
WEST-CENTRAL ILLINOIS

CITY           SKY/WX    TMP DP  RH WIND       PRES   REMARKS
QUINCY         CLOUDY    82  77  84 SE6       30.02R HX  90
GALESBURG*     MOCLDY    77  75  93 SW3       30.01R FOG
MACOMB*        CLOUDY    78  76  92 S5        30.03R HX  82
JACKSONVILLE*  FAIR      81  76  84 S3        30.02S HX  88
PITTSFIELD*    FAIR      81  76  85 CALM      30.03R HX  87
$$

ILZ028>032-037-038-041>044-048-051>054-059>061-230300-
CENTRAL ILLINOIS

CITY           SKY/WX    TMP DP  RH WIND       PRES   REMARKS
PONTIAC        FAIR      81  75  83 CALM      30.00R HX  86
BLOOMINGTON    FAIR      79  72  79 W8        30.03R HX  82
PEORIA         MOCLDY    82  74  76 SW3       30.01R HX  88
LACON*         FAIR      79  73  83 SW6       29.98S HX  82
LINCOLN*       FAIR      82  73  76 CALM      29.98R HX  87
SPRINGFIELD    FAIR      82  71  69 S6        30.01R HX  86
TAYLORVILLE    FAIR      77  70  78 S5        30.01S
$$

ILZ033-039-045-046-055>057-062-063-230300-
EAST-CENTRAL ILLINOIS

CITY           SKY/WX    TMP DP  RH WIND       PRES   REMARKS
CHAMPAIGN      FAIR      76  72  87 S7        30.02R
RANTOUL*       FAIR      76  70  80 SW5       30.02R
MATTOON        LGT RAIN  79  69  71 S6        30.01F HX  81
PARIS*         FAIR      74  71  90 S6        30.02S
$$

ILZ079-100>102-230300-
SOUTHWEST ILLINOIS

CITY           SKY/WX    TMP DP  RH WIND       PRES   REMARKS
ALTON          MOCLDY    79  75  89 SE7       30.02  HX  82
CAHOKIA*       FAIR      81  71  71 S5        30.02S HX  85
SPARTA*        FAIR      77  70  78 SE3       30.05R
$$

ILZ064>066-069>071-074>076-080>082-084>086-088>090-092>094-230300-
SOUTH-CENTRAL ILLINOIS

CITY           SKY/WX    TMP DP  RH WIND       PRES   REMARKS
CARBONDALE     FAIR      75  70  84 CALM      30.05S
CAIRO*         FAIR      78  72  80 CALM      30.05R HX  80
MARION         FAIR      79  72  78 CALM      30.06S HX  82
MT. VERNON     FAIR      75  66  73 CALM      30.06S
CENTRALIA*     FAIR      73  67  81 S6        30.05S
SALEM*         FAIR      80  71  74 S3        30.05S HX  83
METROPOLIS*    FAIR      76  69  80 CALM      30.05R
$$

ILZ067-068-072-073-078-083-087-091-230300-
SOUTHEAST ILLINOIS

CITY           SKY/WX    TMP DP  RH WIND       PRES   REMARKS
FAIRFIELD*     LGT RAIN  77  73  88 CALM      30.05S
HARRISBURG*    FAIR      78  70  76 NW3       30.07R HX  80
ROBINSON*      FAIR      75  71  87 S6        30.05S
CARMI*         FAIR      75  73  93 CALM      30.05R
$$

ABBREVIATIONS USED IN REMARKS
   TC - TEMPERATURE IN CELSIUS
  WCI - WIND CHILL INDEX
   HX - HEAT INDEX
  VSB - VISIBILITY
$$



USA.gov is the U.S. government's official web portal to all federal, state and local government web resources and services.